User: anonymous
Location: Unspecified
(0.0000°N, 0.0000°E)
Time: 07:54:05
(UTC+02:00)
Language:

IUS-9 SRM-1 - Orbit

View from above orbital plane
View from above orbital plane
View from above satellite
View from above satellite

Ground track
Ground track

The orbit data is extracted from the following two-line orbital elements,

1 19884U 89021C   14233.66838706  .00016582  00000-0  17145-2 0   675
2 19884 026.4544 076.0658 6073451 057.3760 013.0077 03.96364012292143
Epoch (UTC): 21 August 2014 16:02:28
Eccentricity: 0.6073451
inclination: 26.4544°
perigee height: 244 km
apogee height: 20731 km
right ascension of ascending node: 76.0658°
argument of perigee: 57.3760°
revolutions per day: 3.96364012
mean anomaly at epoch: 13.0077°
orbit number at epoch: 29214

The dashed part of the orbit path shows where the satellite is in the earth's shadow,  

DLR